TITAN 3C TRANSTAGE DEB, 1684

Orbit data source: Space-Track

TITAN 3C TRANSTAGE DEB, 1684 is space debris in LEO originally from a launch on Fri, 15 Oct 1965 UTC launched from the Air Force Eastern Test Range (AFETR). Debris objects in space refer to the collection of defunct objects orbiting the Earth. Examples of debris include non-operational satellites, rocket bodies, and fragments generated from explosions, collisions, or faulty payload assembly.

Loading next visibility...
Identifier
1684, 1965-082AX
Orbit
LEO
Country
Flag of USUS
Related business
Manufacturer
Unknown
Mission
Spacecraft
Bus & Motor
Unknown
Mass
Unknown
Launch date (UTC)
1965-10-15 (61 years ago)
Launch vehicle
Unknown
Launch site
Air Force Eastern Test Range (AFETR)
Object type
Payload
Rocket body
Debris
Shape & HBR
Unknown shape, 0.9 m
Radar Cross Section
Large (>1 m²)

Expand to show TLE details & history
Last TLE update: 15 hours ago

TLE from 15 hours ago
0 TITAN 3C TRANSTAGE DEB
1 01684U 65082AX  26202.58421865  .00000520  00000-0  12796-3 0  9996
2 01684  32.2150 340.7936 0166945   5.1657 355.0666 14.40450661147500
Epoch: 2026-07-21T14:01Z
TLE epoch observation values (Epoch: 2026-07-21T14:01:16.491Z)
Latitude
-0.00001°
Longitude
-168.87695°
Altitude
637.049 km
Speed
7.604 km/s
True Right ascension
22h 43m 10s
True Declination
0° 00' 00"
Sunlit
Object was in full shadow at epoch
Visualization orbit readout
Latitude
Unknown
Longitude
Unknown
Altitude
Unknown
Speed
Unknown
Apparent Right ascension
Unknown
Apparent Declination
Unknown
Sunlit
N/A
Visualization observer readout
Local Sidereal Time
18:30:40
Azimuth
Unknown
Elevation
Unknown
Doppler factor
Unknown
Orbital elements
Apogee altitude
879.735 km
Perigee altitude
641.381 km
Semi-major axis
7,138.695 km
Eccentricity
0.01669
Inclination
32.215°
RAAN
340.7936°
Arg. of periapsis
5.1657°
True anomaly
354.89859°
Mean anomaly
355.0666°
Eccentric anomaly
354.98295°
Mean motion
3.59845 °/min
Orbital period
100.04 mins
BSTAR
0.00012796

Documentation

Showing up to 5 results
|